Location: Zagreb
(45.8000°N, 16.0000°E)
Time: 18:33:18
(UTC+02:00)

A-11 Canister half - Pass Details

Date: 10 August 2022
Orbit: 1524 x 1684 km, 47.3° (Epoch: 05 October)

Event Time Altitude Azimuth Distance (km) Brightness Sun altitude
Rises 15:17:24 0° 286° (WNW) 4,887 12.0 48.4°
Reaches altitude 10° 15:23:20 10° 259° (W) 3,858 11.9 47.6°
Maximum altitude 15:26:38 12° 239° (WSW) 3,661 12.0 47.1°
Drops below altitude 10° 15:29:54 10° 219° (SW) 3,807 12.0 46.6°
Sets 15:35:42 0° 191° (SSW) 4,746 12.0 45.8°
